Weather History for Lawrenceville, IL

Change the Weather History Date:

Tuesday, January 3, 2012

  Actual Average Record
Temperature  
Mean Temperature 23 °F 31 °F  
Max Temperature 31 °F 39 °F 64 °F (1997)
Min Temperature 15 °F 23 °F -2 °F (2001)
Degree Days  
Heating Degree Days 42 34  
Month to date heating degree days 102 102  
Since 1 July heating degree days 1572 1901  
Cooling Degree Days 0 0  
Month to date cooling degree days 0 0  
Year to date cooling degree days 0 0  
Moisture  
Dew Point 10 °F    
Average Humidity 53    
Maximum Humidity 67    
Minimum Humidity 39    
Precipitation  
Precipitation 0.00 in 0.09 in 1.21 in (2005)
Month to date precipitation T 0.28  
Year to date precipitation T 0.28  
Sea Level Pressure  
Sea Level Pressure 30.41 in    
Wind  
Wind Speed 9 mph (WSW)    
Max Wind Speed 20 mph    
Max Gust Speed 25 mph    
Visibility 10 miles    
Events      
T = Trace of Precipitation, MM = Missing Value Source: NWS Daily Summary

Daily Weather History Graph

Daily Weather History Graph

Search for Another Location

Airport:

Trip Planner

Search our weather history database for the weather conditions in past years. The results will help you decide how hot, cold, wet, or windy it might be!

Date:

Astronomy

Jan. 03, 2012 Rise Set
Actual Time 7:08 AM CST 4:40 PM CST
Civil Twilight 6:39 AM CST 5:10 PM CST
Nautical Twilight 6:05 AM CST 5:43 PM CST
Astronomical Twilight 5:33 AM CST 6:16 PM CST
Moon 12:27 PM CST (1/3) 2:00 AM CST (1/3)
Length of Visible Light 10h 31m
Length of Day
9h 31m
Waxing Gibbous, 73% of the Moon is Illuminated
Jan 3
Waxing Gibbous
Jan 9
Full
Jan 16
Last Quarter
Jan 23
New
Jan 30
First Quarter

Hourly Weather History & Observations

Time (CST) Temp. Windchill Dew Point Humidity Pressure Visibility Wind Dir Wind Speed Gust Speed Precip Events Conditions
12:53 AM 21.0 °F 6.6 °F 7.0 °F 55% 30.46 in 10.0 mi NW 17.3 mph 25.3 mph N/A   Clear
1:53 AM 19.0 °F 8.2 °F 7.0 °F 59% 30.48 in 10.0 mi NW 9.2 mph - N/A   Clear
2:53 AM 19.0 °F 5.6 °F 7.0 °F 59% 30.49 in 10.0 mi NW 13.8 mph - N/A   Clear
4:53 AM 16.0 °F 4.4 °F 7.0 °F 68% 30.48 in 10.0 mi WNW 9.2 mph - N/A   Clear
5:53 AM 16.0 °F 7.4 °F 7.0 °F 68% 30.48 in 10.0 mi WNW 5.8 mph - N/A   Clear
6:53 AM 15.1 °F 6.4 °F 7.0 °F 70% 30.51 in 10.0 mi WNW 5.8 mph - N/A   Clear
8:53 AM 21.0 °F 12.4 °F 9.0 °F 60% 30.55 in 10.0 mi West 6.9 mph - N/A   Clear
9:53 AM 23.0 °F 15.8 °F 9.0 °F 55% 30.55 in 10.0 mi Variable 5.8 mph - N/A   Clear
10:53 AM 25.0 °F 17.1 °F 9.0 °F 51% 30.53 in 10.0 mi WNW 6.9 mph - N/A   Clear
11:53 AM 28.0 °F 20.8 °F 9.0 °F 45% 30.50 in 10.0 mi WNW 6.9 mph - N/A   Clear
12:53 PM 28.0 °F 22.8 °F 9.0 °F 45% 30.45 in 10.0 mi West 4.6 mph - N/A   Clear
1:53 PM 30.0 °F 23.2 °F 8.1 °F 40% 30.42 in 10.0 mi WSW 6.9 mph - N/A   Clear
2:53 PM 30.0 °F 24.1 °F 8.1 °F 40% 30.40 in 10.0 mi SSW 5.8 mph - N/A   Clear
3:53 PM 30.0 °F 21.7 °F 9.0 °F 41% 30.39 in 10.0 mi SSW 9.2 mph - N/A   Clear
4:53 PM 27.0 °F 18.7 °F 12.0 °F 53% 30.37 in 10.0 mi South 8.1 mph - N/A   Clear
5:53 PM 24.1 °F 15.2 °F 12.9 °F 62% 30.35 in 10.0 mi South 8.1 mph - N/A   Clear
6:53 PM 25.0 °F 15.5 °F 12.9 °F 60% 30.33 in 10.0 mi South 9.2 mph - N/A   Clear
7:53 PM 25.0 °F 14.8 °F 14.0 °F 63% 30.30 in 10.0 mi SSE 10.4 mph - N/A   Clear
8:53 PM 26.1 °F 15.0 °F 12.9 °F 58% 30.27 in 10.0 mi South 12.7 mph - N/A   Clear
9:53 PM 26.1 °F 17.6 °F 14.0 °F 60% 30.28 in 10.0 mi South 8.1 mph - N/A   Clear
10:53 PM 28.0 °F 18.1 °F 14.0 °F 56% 30.25 in 10.0 mi South 11.5 mph - N/A   Clear
11:53 PM 28.0 °F 20.0 °F 12.9 °F 53% 30.23 in 10.0 mi SSW 8.1 mph - N/A   Clear